This is the latest recevied weather packets stored in our database for station/object GW3ATZ-10. If no packets are shown the sender has not sent any weather packets the latest 10 day(s).
| Time | Temp. | Humidity | Pressure | Rain* | Wind** | Luminosity | Snow |
|---|---|---|---|---|---|---|---|
| 1788091615 | 21.67° C | 57% | 1007.5 hPa | - | - | - | - |
| 1788090715 | 22.22° C | 57% | 1007.7 hPa | - | - | - | - |
| 1788089815 | 22.22° C | 56% | 1007.7 hPa | - | - | - | - |
| 1788089746 | 22.22° C | 56% | 1007.7 hPa | - | - | - | - |
| 1788088955 | 22.22° C | 59% | 1008 hPa | - | - | - | - |
| 1788088215 | 21.67° C | 58% | 1008.2 hPa | - | - | - | - |
| 1788087315 | 21.67° C | 60% | 1008.2 hPa | - | - | - | - |
| 1788086415 | 21.67° C | 58% | 1008.2 hPa | - | - | - | - |
| 1788085515 | 22.22° C | 57% | 1008.3 hPa | - | - | - | - |
| 1788084615 | 21.11° C | 59% | 1008.6 hPa | - | - | - | - |
| 1788083714 | 21.11° C | 59% | 1008.6 hPa | - | - | - | - |
| 1788082814 | 21.11° C | 60% | 1008.6 hPa | - | - | - | - |
| 1788082789 | 21.11° C | 59% | 1008.5 hPa | - | - | - | - |
| 1788082755 | 21.11° C | 59% | 1008.5 hPa | - | - | - | - |
| 1788082470 | 20.56° C | 61% | 1008.5 hPa | - | - | - | - |
| 1788081570 | 20.56° C | 62% | 1008.7 hPa | - | - | - | - |
| 1788080670 | 20.56° C | 61% | 1008.7 hPa | - | - | - | - |
| 1788079770 | 20° C | 63% | 1008.7 hPa | - | - | - | - |
| 1788078870 | 19.44° C | 64% | 1008.8 hPa | - | - | - | - |
| 1788077970 | 19.44° C | 65% | 1008.7 hPa | - | - | - | - |
| 1788077069 | 18.89° C | 63% | 1008.7 hPa | - | - | - | - |
| 1788076169 | 18.89° C | 65% | 1008.6 hPa | - | - | - | - |
| 1788075269 | 18.89° C | 65% | 1008.7 hPa | - | - | - | - |
| 1788074369 | 18.33° C | 65% | 1008.7 hPa | - | - | - | - |
| 1788073469 | 17.78° C | 64% | 1008.7 hPa | - | - | - | - |
* Rain since midnight (hover to see other rain measurements)
** Current wind speed in m/s (hover to see current wind gust speed)